This is the latest recevied weather packets stored in our database for station/object GUNLAK-WX. If no packets are shown the sender has not sent any weather packets the latest 10 day(s).
| Time | Temp. | Humidity | Pressure | Rain* | Wind** | Luminosity | Snow |
|---|---|---|---|---|---|---|---|
| 1777012289 | 17.22° C | 58% | 980.8 hPa | 0 mm | - | - | - |
| 1777011382 | 17.22° C | 58% | 980.8 hPa | 0 mm | - | - | - |
| 1777010503 | 17.22° C | 58% | 980.8 hPa | 0 mm | - | - | - |
| 1777009579 | 17.78° C | 52% | 981.9 hPa | 0 mm | - | - | - |
| 1777008684 | 17.78° C | 57% | 981.9 hPa | 0 mm | - | - | - |
| 1777007772 | 17.78° C | 57% | 981.9 hPa | 0 mm | - | - | - |
| 1777006897 | 17.78° C | 57% | 981.9 hPa | 0 mm | - | - | - |
| 1777005981 | 18.33° C | 52% | 980.8 hPa | 0 mm | - | - | - |
| 1777005086 | 18.89° C | 52% | 980.8 hPa | 0 mm | - | - | - |
| 1777004181 | 18.33° C | 54% | 980.8 hPa | 0 mm | - | - | - |
| 1777003299 | 18.89° C | 54% | 980.8 hPa | 0 mm | - | - | - |
| 1777002381 | 18.89° C | 50% | 981.2 hPa | 0 mm | - | - | - |
| 1777001490 | 19.44° C | 54% | 980.6 hPa | 0 mm | - | - | - |
| 1777000575 | 20° C | 54% | 980.6 hPa | 0 mm | - | - | - |
| 1776999693 | 20° C | 54% | 980.6 hPa | 0 mm | - | - | - |
| 1776998780 | 20.56° C | 52% | 981.7 hPa | 0 mm | - | - | - |
| 1776997885 | 20.56° C | 55% | 981.2 hPa | 0 mm | - | - | - |
| 1776996976 | 20° C | 55% | 981.1 hPa | 0 mm | - | - | - |
| 1776996091 | 20.56° C | 55% | 981.1 hPa | 0 mm | - | - | - |
| 1776995179 | 20.56° C | 54% | 981.2 hPa | 0 mm | - | - | - |
| 1776994290 | 21.11° C | 54% | 981.2 hPa | 0 mm | - | - | - |
| 1776993379 | 21.11° C | 54% | 981.1 hPa | 0 mm | - | - | - |
| 1776992495 | 21.67° C | 54% | 981.1 hPa | 0 mm | - | - | - |
| 1776991571 | 21.67° C | 48% | 981.7 hPa | 0 mm | - | - | - |
| 1776990684 | 22.78° C | 50% | 982.1 hPa | 0 mm | - | - | - |
* Rain latest hour (hover to see other rain measurements)
** Current wind speed in m/s (hover to see current wind gust speed)